S56BOT-2 Weather Reports


time (UTC)temp
C
wind
direction
speed
KPH
gust
KPH
rain 1hr
cm
rain 24hr
cm
rain mn
cm
humidity
%
barometer
mb
20260906051542 18 84 25.7 46.7 0.00 0.00 0.00 63 1023.0
20260906050046 18 98 20.9 38.6 0.00 0.00 0.00 64 1023.0
20260906044546 18 92 20.9 38.6 0.00 0.00 0.00 64 1022.9
20260906043042 18 91 24.1 40.2 0.00 0.00 0.00 64 1022.7
20260906041550 18 113 22.5 40.2 0.00 0.00 0.00 64 1022.8
20260906040048 18 86 20.9 41.8 0.00 0.00 0.00 65 1022.6
20260906034554 18 123 24.1 45.1 0.00 0.00 0.00 65 1022.5
20260906033044 18 80 24.1 48.3 0.00 0.00 0.00 65 1022.4
20260906031609 18 133 20.9 40.2 0.00 0.00 0.00 65 1022.4
20260906030044 19 107 20.9 46.7 0.00 0.00 0.00 65 1022.4
20260906024549 19 134 24.1 45.1 0.00 0.00 0.00 65 1022.3
20260906023101 19 68 20.9 40.2 0.00 0.00 0.00 65 1022.3
20260906021544 19 65 20.9 33.8 0.00 0.00 0.00 66 1022.3
20260906020055 19 108 19.3 37.0 0.00 0.00 0.00 64 1022.2
20260906014542 20 119 17.7 37.0 0.00 0.00 0.00 62 1022.2
20260906013044 20 87 17.7 37.0 0.00 0.00 0.00 61 1022.2
20260906011544 20 88 22.5 37.0 0.00 0.00 0.00 61 1022.2
20260906010043 20 87 19.3 37.0 0.00 0.00 0.00 61 1022.2
20260906004550 20 87 20.9 40.2 0.00 0.00 0.00 61 1022.1
20260906003050 20 88 17.7 35.4 0.00 0.00 0.00 62 1022.1
20260906001546 20 153 20.9 35.4 0.00 0.00 0.00 61 1022.3
20260906000042 20 107 17.7 40.2 0.00 0.00 0.00 61 1022.2
20260905234542 20 113 17.7 38.6 0.00 0.00 0.00 61 1022.1
20260905233048 20 118 20.9 35.4 0.00 0.00 0.00 61 1022.1
20260905231542 20 135 16.1 30.6 0.00 0.00 0.00 62 1022.1
20260905230048 20 107 16.1 30.6 0.00 0.00 0.00 61 1022.2
20260905224541 20 142 17.7 40.2 0.00 0.00 0.00 62 1022.1
20260905223042 20 109 16.1 40.2 0.00 0.00 0.00 63 1022.1
20260905221558 20 71 16.1 32.2 0.00 0.00 0.00 63 1022.1
20260905220043 20 109 19.3 40.2 0.00 0.00 0.00 63 1022.1
20260905214546 20 116 16.1 30.6 0.00 0.00 0.00 64 1022.0
20260905213042 20 123 12.9 25.7 0.00 0.00 0.00 67 1022.0
20260905211543 20 101 11.3 24.1 0.00 0.00 0.00 67 1021.9
20260905210103 20 117 12.9 22.5 0.00 0.00 0.00 68 1021.8
20260905204544 20 134 9.7 22.5 0.00 0.00 0.00 67 1021.6
20260905203043 21 142 14.5 22.5 0.00 0.00 0.00 67 1021.4
20260905201542 21 148 9.7 17.7 0.00 0.00 0.00 67 1021.5
20260905200044 21 55 9.7 19.3 0.00 0.00 0.00 67 1021.4
20260905194548 21 124 11.3 20.9 0.00 0.00 0.00 66 1021.4
20260905193044 21 121 12.9 22.5 0.00 0.00 0.00 67 1021.2
20260905191543 21 138 14.5 22.5 0.00 0.00 0.00 68 1021.1
20260905190051 21 107 16.1 27.4 0.00 0.00 0.00 68 1020.9
20260905184544 21 112 17.7 27.4 0.00 0.00 0.00 67 1020.8
20260905183043 21 96 16.1 29.0 0.00 0.00 0.00 67 1020.7
20260905181549 21 106 19.3 32.2 0.00 0.00 0.00 68 1020.6
20260905180110 21 108 19.3 33.8 0.00 0.00 0.00 70 1020.4
20260905174545 21 102 17.7 32.2 0.00 0.00 0.00 69 1020.2
20260905173054 21 78 14.5 30.6 0.00 0.00 0.00 70 1020.1
20260905171553 22 88 16.1 30.6 0.00 0.00 0.00 67 1020.1
20260905170044 22 113 8.0 19.3 0.00 0.00 0.00 66 1020.1
20260905164544 23 101 8.0 20.9 0.00 0.00 0.00 60 1020.0
20260905163046 25 60 4.8 9.7 0.00 0.00 0.00 70 1019.9
20260905161545 26 308 0.0 3.2 0.00 0.00 0.00 66 1019.6
20260905160054 26 238 3.2 8.0 0.00 0.00 0.00 59 1019.5
20260905154551 26 235 4.8 12.9 0.00 0.00 0.00 66 1019.3
20260905153044 26 207 4.8 14.5 0.00 0.00 0.00 66 1019.3
20260905151542 26 209 4.8 12.9 0.00 0.00 0.00 65 1019.3
20260905150044 26 179 3.2 12.9 0.00 0.00 0.00 69 1019.2
20260905144546 26 198 6.4 14.5 0.00 0.00 0.00 67 1019.1
20260905143042 26 205 6.4 16.1 0.00 0.00 0.00 65 1019.1
20260905141546 26 228 8.0 16.1 0.00 0.00 0.00 63 1019.3
20260905140047 26 246 4.8 16.1 0.00 0.00 0.00 64 1019.5
20260905134549 26 269 6.4 12.9 0.00 0.00 0.00 65 1019.4
20260905133044 26 225 1.6 16.1 0.00 0.00 0.00 64 1019.3
20260905131544 27 263 4.8 14.5 0.00 0.00 0.00 61 1019.3
20260905130042 27 244 4.8 11.3 0.00 0.00 0.00 57 1019.5
20260905124544 27 239 3.2 16.1 0.00 0.00 0.00 56 1019.5
20260905123042 27 265 4.8 19.3 0.00 0.00 0.00 56 1019.5
20260905121546 27 271 9.7 16.1 0.00 0.00 0.00 54 1019.5
20260905120057 27 270 8.0 17.7 0.00 0.00 0.00 53 1019.5
20260905114557 27 214 8.0 17.7 0.00 0.00 0.00 52 1019.4
20260905113053 27 212 8.0 17.7 0.00 0.00 0.00 50 1019.5
20260905111623 26 217 6.4 17.7 0.00 0.00 0.00 52 1019.6
20260905110041 26 236 4.8 14.5 0.00 0.00 0.00 52 1019.5
20260905104547 26 227 6.4 17.7 0.00 0.00 0.00 52 1019.6
20260905103045 26 177 6.4 16.1 0.00 0.00 0.00 50 1019.5
20260905101544 26 199 11.3 19.3 0.00 0.00 0.00 50 1019.6
20260905100041 25 163 4.8 12.9 0.00 0.00 0.00 50 1019.7
20260905094549 26 165 6.4 12.9 0.00 0.00 0.00 46 1019.8
20260905093052 26 167 1.6 4.8 0.00 0.00 0.00 44 1019.7
20260905091542 25 138 3.2 9.7 0.00 0.00 0.00 44 1019.8
20260905090046 25 306 3.2 8.0 0.00 0.00 0.00 43 1019.7
20260905084543 25 42 3.2 6.4 0.00 0.00 0.00 46 1019.6
20260905083043 24 54 4.8 12.9 0.00 0.00 0.00 45 1019.3
20260905081542 24 76 4.8 11.3 0.00 0.00 0.00 49 1019.2
20260905080047 24 85 3.2 8.0 0.00 0.00 0.00 49 1018.9
20260905074543 24 106 3.2 6.4 0.00 0.00 0.00 47 1018.8
20260905073043 24 169 4.8 12.9 0.00 0.00 0.00 42 1018.7
20260905071545 23 180 4.8 12.9 0.00 0.00 0.00 43 1018.6
20260905070051 23 190 4.8 14.5 0.00 0.00 0.00 43 1018.7
20260905064558 22 182 3.2 11.3 0.00 0.00 0.00 43 1018.4
20260905063043 22 196 4.8 11.3 0.00 0.00 0.00 43 1018.3
20260905061541 22 0 4.8 11.3 0.00 0.00 0.00 42 1018.4
20260905060043 22 207 4.8 9.7 0.00 0.00 0.00 41 1018.7
20260905054550 22 209 8.0 9.7 0.00 0.00 0.00 40 1018.6
20260905053045 22 219 6.4 8.0 0.00 0.00 0.00 39 1018.8